OPS 4682 DEB, 38429

Orbit data source: Space-Track

OPS 4682 DEB, 38429 is space debris in LEO originally from a launch on Sat, 03 Apr 1965 UTC launched from the Air Force Western Test Range (AFWTR). Debris objects in space refer to the collection of defunct objects orbiting the Earth. Examples of debris include non-operational satellites, rocket bodies, and fragments generated from explosions, collisions, or faulty payload assembly.

Loading next visibility...
Identifier
38429, 1965-027EJ
Orbit
LEO
Country
Flag of USUS
Related business
Manufacturer
Unknown
Mission
Spacecraft
Bus & Motor
Unknown
Mass
Unknown
Launch date (UTC)
1965-04-03 (61 years ago)
Launch vehicle
Unknown
Launch site
Air Force Western Test Range (AFWTR)
Object type
Payload
Rocket body
Debris
Shape & HBR
Unknown shape, 0.1 m
Radar Cross Section
Small (<0.1 m²)

Expand to show TLE details & history
Last TLE update: 2 days ago

TLE from 2 days ago
0 OPS 4682 DEB
1 38429U 65027EJ  25292.87279678  .00000492  00000-0  16554-2 0  9998
2 38429  90.2379 355.5671 0038503 306.1600  53.5961 12.97881686558244
Epoch: 2025-10-19T20:56Z
TLE epoch observation values (Epoch: 2025-10-19T20:56:49.641Z)
Latitude
-0.00003°
Longitude
12.77704°
Altitude
1,255.871 km
Speed
7.235 km/s
True Right ascension
23h 42m 16s
True Declination
0° 00' 00"
Sunlit
Object was in full shadow at epoch
Visualization orbit readout
Latitude
Unknown
Longitude
Unknown
Altitude
Unknown
Speed
Unknown
Apparent Right ascension
Unknown
Apparent Declination
Unknown
Sunlit
N/A
Visualization observer readout
Local Sidereal Time
12:40:32
Azimuth
Unknown
Elevation
Unknown
Doppler factor
Unknown
Orbital elements
Apogee altitude
1,296.966 km
Perigee altitude
1,238.09 km
Semi-major axis
7,645.665 km
Eccentricity
0.00385
Inclination
90.2379°
RAAN
355.5671°
Arg. of periapsis
306.16°
True anomaly
53.95223°
Mean anomaly
53.5961°
Eccentric anomaly
53.77406°
Mean motion
3.24654 °/min
Orbital period
110.89 mins
BSTAR
0.0016554
Loading maneuver chart data...
Computing Atmospheric mass density...
Loading historical data...
Loading historical data...
Loading historical data...
Loading historical data...
Loading historical data...
Loading historical data...
Loading historical data...

Documentation

Showing up to 5 results
|